DW4844 Weather Reports


Display with metric or nautical units.
time (UTC)temp
F
wind
direction
speed
MPH
gust
MPH
rain 1hr
in
rain 24hr
in
rain mn
in
humidity
%
barometer
mb
20260507122217 57 0.0 0.0 0.00 0.00 0.00 29 1016.7
20260507121217 57 0.0 0.0 0.00 0.00 0.00 30 1016.8
20260507120257 57 0.0 0.0 0.00 0.00 0.00 31 1016.6
20260507115217 57 0.0 0.0 0.00 0.00 0.00 30 1016.6
20260507114217 57 0.0 0.0 0.00 0.00 0.00 34 1016.7
20260507113217 57 0.0 0.0 0.00 0.00 0.00 35 1016.7
20260507112237 55 0.0 0.0 0.00 0.00 0.00 39 1016.6
20260507111217 55 0.0 0.0 0.00 0.00 0.00 40 1016.7
20260507110217 55 0.0 0.0 0.00 0.00 0.00 42 1016.7
20260507105217 55 0.0 0.0 0.00 0.00 0.00 42 1016.6
20260507104217 54 0.0 0.0 0.00 0.00 0.00 43 1016.6
20260507103217 54 0.0 0.0 0.00 0.00 0.00 41 1016.7
20260507102217 54 0.0 0.0 0.00 0.00 0.00 42 1016.6
20260507101217 53 0.0 0.0 0.00 0.00 0.00 43 1016.6
20260507100217 53 0.0 0.0 0.00 0.00 0.00 43 1016.5
20260507095217 54 0.0 0.0 0.00 0.00 0.00 44 1016.6
20260507094217 52 0.0 0.0 0.00 0.00 0.00 43 1016.6
20260507093237 52 0.0 0.0 0.00 0.00 0.00 43 1016.6
20260507092217 51 0.0 0.0 0.00 0.00 0.00 40 1016.6
20260507091237 51 0.0 0.0 0.00 0.00 0.00 45 1016.6
20260507090257 50 0.0 0.0 0.00 0.00 0.00 48 1016.5
20260507085217 49 0.0 0.0 0.00 0.00 0.00 51 1016.5
20260507084217 49 0.0 0.0 0.00 0.00 0.00 52 1016.5
20260507083217 48 0.0 0.0 0.00 0.00 0.00 52 1016.5
20260507082217 48 0.0 0.0 0.00 0.00 0.00 53 1016.4
20260507081217 47 0.0 0.0 0.00 0.00 0.00 54 1016.4
20260507080217 47 0.0 0.0 0.00 0.00 0.00 55 1016.4
20260507075237 47 0.0 0.0 0.00 0.00 0.00 56 1016.4
20260507074217 46 0.0 0.0 0.00 0.00 0.00 58 1016.4
20260507073237 46 0.0 0.0 0.00 0.00 0.00 59 1016.3
20260507072217 45 0.0 0.0 0.00 0.00 0.00 61 1016.3
20260507071217 45 0.0 0.0 0.00 0.00 0.00 63 1016.4
20260507070217 44 0.0 0.0 0.00 0.00 0.00 66 1016.4
20260507065217 44 0.0 0.0 0.00 0.00 0.00 68 1016.4
20260507064217 43 0.0 0.0 0.00 0.00 0.00 71 1016.4
20260507063217 43 0.0 0.0 0.00 0.00 0.00 74 1016.3
20260507062217 41 0.0 0.0 0.00 0.00 0.00 80 1016.2
20260507061217 40 0.0 0.0 0.00 0.00 0.00 81 1016.1
20260507060217 39 0.0 0.0 0.00 0.00 0.00 84 1016.2
20260507055217 38 0.0 0.0 0.00 0.00 0.00 84 1016.2
20260507054217 38 0.0 0.0 0.00 0.00 0.00 85 1016.2
20260507053217 37 0.0 0.0 0.00 0.00 0.00 87 1016.2
20260507052217 36 0.0 0.0 0.00 0.00 0.00 88 1016.1
20260507051217 36 0.0 0.0 0.00 0.00 0.00 88 1016.0
20260507050257 35 0.0 0.0 0.00 0.00 0.00 89 1016.0
20260507045217 34 0.0 0.0 0.00 0.00 0.00 90 1016.0
20260507044217 34 0.0 0.0 0.00 0.00 0.00 90 1015.9
20260507043217 33 0.0 0.0 0.00 0.00 0.00 90 1015.9
20260507042217 33 0.0 0.0 0.00 0.00 0.00 91 1015.8
20260507041217 32 0.0 0.0 0.00 0.00 0.00 90 1015.8
20260507040237 32 0.0 0.0 0.00 0.00 0.00 90 1015.8
20260507035217 32 0.0 0.0 0.00 0.00 0.00 89 1015.7
20260507034217 32 0.0 0.0 0.00 0.00 0.00 89 1015.7
20260507033217 32 0.0 0.0 0.00 0.00 0.00 90 1015.6
20260507032217 32 0.0 0.0 0.00 0.00 0.00 89 1015.7
20260507031237 32 0.0 0.0 0.00 0.00 0.00 89 1015.7
20260507030217 32 0.0 0.0 0.00 0.00 0.00 88 1015.7
20260507025217 32 0.0 0.0 0.00 0.00 0.00 87 1015.7
20260507024217 33 0.0 0.0 0.00 0.00 0.00 87 1015.6
20260507023217 33 0.0 0.0 0.00 0.00 0.00 87 1015.5
20260507022237 34 0.0 0.0 0.00 0.00 0.00 87 1015.5
20260507021237 34 0.0 0.0 0.00 0.00 0.00 86 1015.4
20260507020217 34 0.0 0.0 0.00 0.00 0.00 86 1015.4
20260507015217 35 0.0 0.0 0.00 0.00 0.00 86 1015.4
20260507014217 35 0.0 0.0 0.00 0.00 0.00 85 1015.3
20260507013217 36 0.0 0.0 0.00 0.00 0.00 84 1015.3
20260507012217 37 0.0 0.0 0.00 0.00 0.00 83 1015.1
20260507011317 38 0.0 0.0 0.00 0.00 0.00 85 1015.1
20260507010217 37 0.0 0.0 0.00 0.00 0.00 87 1015.1
20260507005217 36 0.0 0.0 0.00 0.00 0.00 86 1015.3
20260507004217 36 0.0 0.0 0.00 0.00 0.00 85 1015.1
20260507003217 36 0.0 0.0 0.00 0.00 0.00 85 1015.2
20260507002217 37 0.0 0.0 0.00 0.00 0.00 85 1015.1
20260507001217 36 0.0 0.0 0.00 0.00 0.00 85 1015.0
20260507000219 37 0.0 0.0 0.00 0.00 0.00 85 1015.1
20260506235217 37 0.0 0.0 0.00 0.00 0.00 86 1015.0
20260506234217 36 0.0 0.0 0.00 0.00 0.00 86 1015.0
20260506233217 36 0.0 0.0 0.00 0.00 0.00 87 1015.1
20260506232217 35 0.0 0.0 0.00 0.00 0.00 86 1015.0
20260506231217 35 0.0 0.0 0.00 0.00 0.00 85 1015.1
20260506230217 35 0.0 0.0 0.00 0.00 0.00 85 1015.1
20260506225217 35 0.0 0.0 0.00 0.00 0.00 84 1015.0
20260506224237 36 0.0 0.0 0.00 0.00 0.00 84 1015.0
20260506223217 36 0.0 0.0 0.00 0.00 0.00 83 1014.9
20260506222257 36 0.0 0.0 0.00 0.00 0.00 83 1014.9
20260506221237 37 0.0 0.0 0.00 0.00 0.00 82 1014.8
20260506220217 37 0.0 0.0 0.00 0.00 0.00 81 1014.8
20260506215217 37 0.0 0.0 0.00 0.00 0.00 80 1014.8
20260506214217 38 0.0 0.0 0.00 0.00 0.00 78 1014.8
20260506213217 39 0.0 0.0 0.00 0.00 0.00 78 1014.8
20260506212217 39 0.0 0.0 0.00 0.00 0.00 78 1014.7
20260506211257 39 0.0 0.0 0.00 0.00 0.00 77 1014.7
20260506210237 39 0.0 0.0 0.00 0.00 0.00 76 1014.7
20260506205337 39 0.0 0.0 0.00 0.00 0.00 76 1014.7
20260506204217 39 0.0 0.0 0.00 0.00 0.00 75 1014.7
20260506203217 39 0.0 0.0 0.00 0.00 0.00 74 1014.7
20260506202217 40 0.0 0.0 0.00 0.00 0.00 72 1014.6
20260506201217 40 0.0 0.0 0.00 0.00 0.00 71 1014.7
20260506200217 40 0.0 0.0 0.00 0.00 0.00 71 1014.7
20260506195217 40 0.0 0.0 0.00 0.00 0.00 70 1014.6
20260506194217 41 0.0 0.0 0.00 0.00 0.00 68 1014.6
20260506193217 41 0.0 0.0 0.00 0.00 0.00 66 1014.6
20260506192217 42 0.0 0.0 0.00 0.00 0.00 66 1014.5
20260506191217 42 0.0 0.0 0.00 0.00 0.00 66 1014.4
20260506190217 43 0.0 0.0 0.00 0.00 0.00 65 1014.4
20260506185217 43 0.0 0.0 0.00 0.00 0.00 64 1014.3
20260506184217 44 0.0 0.0 0.00 0.00 0.00 65 1014.3
20260506183217 44 0.0 0.0 0.00 0.00 0.00 64 1014.3
20260506182217 44 0.0 0.0 0.00 0.00 0.00 64 1014.3
20260506181217 45 0.0 0.0 0.00 0.00 0.00 63 1014.3
20260506180217 45 0.0 0.0 0.00 0.00 0.00 62 1014.2
20260506175217 45 0.0 0.0 0.00 0.00 0.00 62 1014.2
20260506174217 45 0.0 0.0 0.00 0.00 0.00 62 1014.2
20260506173217 45 0.0 0.0 0.00 0.00 0.00 62 1014.0
20260506172217 45 0.0 0.0 0.00 0.00 0.00 62 1014.0
20260506171217 45 0.0 0.0 0.00 0.00 0.00 62 1014.0
20260506170217 45 0.0 0.0 0.00 0.00 0.00 61 1014.0
20260506165217 46 0.0 0.0 0.00 0.00 0.00 57 1014.0
20260506164217 46 0.0 0.0 0.00 0.00 0.00 58 1013.9
20260506163237 46 0.0 0.0 0.00 0.00 0.00 58 1013.9
20260506162217 46 0.0 0.0 0.00 0.00 0.00 58 1013.8
20260506161217 47 0.0 0.0 0.00 0.00 0.00 57 1013.9
20260506160217 47 0.0 0.0 0.00 0.00 0.00 57 1013.8
20260506155217 47 0.0 0.0 0.00 0.00 0.00 59 1013.9
20260506154217 46 0.0 0.0 0.00 0.00 0.00 59 1013.9
20260506153217 46 0.0 0.0 0.00 0.00 0.00 59 1013.9
20260506152217 46 0.0 0.0 0.00 0.00 0.00 60 1013.9
20260506151237 47 0.0 0.0 0.00 0.00 0.00 60 1013.9
20260506150217 47 0.0 0.0 0.00 0.00 0.00 59 1014.0
20260506145217 46 0.0 0.0 0.00 0.00 0.00 59 1014.0
20260506144217 47 0.0 0.0 0.00 0.00 0.00 57 1014.1
20260506143217 47 0.0 0.0 0.00 0.00 0.00 57 1014.2
20260506142217 48 0.0 0.0 0.00 0.00 0.00 56 1014.0
20260506141217 48 0.0 0.0 0.00 0.00 0.00 55 1014.0
20260506140217 48 0.0 0.0 0.00 0.00 0.00 56 1014.0
20260506135217 48 0.0 0.0 0.00 0.00 0.00 57 1014.1
20260506134217 47 0.0 0.0 0.00 0.00 0.00 58 1014.3
20260506133217 47 0.0 0.0 0.00 0.00 0.00 59 1014.3
20260506132217 48 0.0 0.0 0.00 0.00 0.00 57 1014.2
20260506131217 48 0.0 0.0 0.00 0.00 0.00 57 1014.3
20260506130217 47 0.0 0.0 0.00 0.00 0.00 57 1014.2
20260506125217 46 0.0 0.0 0.00 0.00 0.00 59 1014.2
20260506124237 48 0.0 0.0 0.00 0.00 0.00 58 1014.3
20260506123217 47 0.0 0.0 0.00 0.00 0.00 58 1014.3